Regional Weather Roundup
Issued by NWS

Home | Current Version | Previous Version | Text Only | Print | Product List | Glossary Off
Versions: 1 2 3 4 5 6 7 8 9 10 11 12 13 14 15 16 17 18 19 20 21 22 23 24 25 26 27 28 29 30 31 32 33 34 35 36 37 38 39 40 41 42 43 44 45 46 47 48 49 50

000
ASUS43 KLMK 271510
RWRKY
KENTUCKY REGIONAL WEATHER ROUNDUP
NATIONAL WEATHER SERVICE LOUISVILLE KY
1100 AM EDT MON JUL 27 2015

NOTE "FAIR" INDICATES FEW OR NO CLOUDS BELOW 12,000 FEET
WITH NO SIGNIFICANT WEATHER AND/OR OBSTRUCTIONS TO VISIBILITY.

KYZ001>023-026-027-061>063-070>075-271600-
WESTERN AND SOUTH CENTRAL KENTUCKY

CITY           SKY/WX    TMP DP  RH WIND       PRES   REMARKS
PADUCAH        PTSUNNY   79  75  87 S5        29.99S
HENDERSON      PTSUNNY   81  73  78 SW5       29.98S
OWENSBORO      PTSUNNY   84  77  80 SW7       30.00S HX  93
HOPKINSVILLE   MOSUNNY   85  76  74 W5        30.01R HX  94
BOWLING GREEN  PTSUNNY   85  72  65 VRB5      30.02R HX  91
GLASGOW        PTSUNNY   82  72  71 SW6       30.02R
$$

KYZ024-025-028>034-038-045-046-053-271600-
NORTH CENTRAL KENTUCKY

CITY           SKY/WX    TMP DP  RH WIND       PRES   REMARKS
LOUISVILLE/SDF LGT RAIN  77  71  82 W3        29.99F
LOUISVILLE/LOU PTSUNNY   80  70  71 NW6       30.00F
FORT KNOX      CLOUDY    77  72  85 NW5       30.00R
$$

KYZ035>037-039>044-047>052-055>060-089>105-271600-
NORTHEAST KENTUCKY

CITY           SKY/WX    TMP DP  RH WIND       PRES   REMARKS
LEXINGTON      CLOUDY    82  75  79 N3        30.02S
COVINGTON      CLOUDY    78  72  81 E3        30.02R HAZE
FRANKFORT      PTSUNNY   82  71  69 CALM      30.01R
$$

KYZ054-064>069-076>088-106>120-271600-
SOUTHEAST KENTUCKY

CITY           SKY/WX    TMP DP  RH WIND       PRES   REMARKS
JACKSON        PTSUNNY   79  72  79 CALM      30.06R
LONDON         PTSUNNY   82  70  66 SW5       30.05R
SOMERSET       MOSUNNY   79  72  78 CALM      30.05S
MIDDLESBORO    MOSUNNY   79  73  81 CALM      30.06R
MONTICELLO     MOSUNNY   83  76  79 CALM      30.07R HX  91
$$



USA.gov is the U.S. government's official web portal to all federal, state and local government web resources and services.